Weather History for Weslaco, TX

Change the Weather History Date:

Saturday, December 8, 2012

  Actual Average (KMFE) Record (KMFE)
Temperature  
Mean Temperature 76 °F 63 °F  
Max Temperature 85 °F 73 °F 90 °F (1996)
Min Temperature 68 °F 53 °F 34 °F (1913)
Degree Days  
Heating Degree Days 0 5  
Month to date heating degree days 35  
Since 1 July heating degree days 95  
Cooling Degree Days 12 3  
Month to date cooling degree days 26  
Year to date cooling degree days 4395  
Growing Degree Days 26 (Base 50)    
Moisture  
Dew Point 66 °F    
Average Humidity 75    
Maximum Humidity 91    
Minimum Humidity 48    
Precipitation  
Precipitation 0.00 in 0.03 in 0.81 in (1967)
Month to date precipitation 0.26  
Year to date precipitation 21.27  
Sea Level Pressure  
Sea Level Pressure 29.82 in    
Wind  
Wind Speed 8 mph (SSE)    
Max Wind Speed 18 mph    
Max Gust Speed 25 mph    
Visibility 8 miles    
Events      
T = Trace of Precipitation, MM = Missing Value Source: NWS Daily Summary

Daily Weather History Graph

Daily Weather History Graph

Search for Another Location

Airport:

Trip Planner

Search our weather history database for the weather conditions in past years. The results will help you decide how hot, cold, wet, or windy it might be!

Date:

Astronomy

Dec. 08, 2012 Rise Set
Actual Time 7:07 AM CST 5:40 PM CST
Civil Twilight 6:42 AM CST 6:05 PM CST
Nautical Twilight 6:13 AM CST 6:34 PM CST
Astronomical Twilight 5:45 AM CST 7:02 PM CST
Moon 1:58 AM CST (12/8) 1:50 PM CST (12/8)
Length of Visible Light 11h 23m
Length of Day
10h 32m
Waning Crescent, 28% of the Moon is Illuminated
Dec 8
Waning Crescent
Dec 13
New
Dec 19
First Quarter
Dec 28
Full
Jan 4
Last Quarter

Hourly Weather History & Observations

Time (CST) Temp. Heat Index Dew Point Humidity Pressure Visibility Wind Dir Wind Speed Gust Speed Precip Events Conditions
12:15 AM 69.8 °F - 65.7 °F 87% 29.81 in 10.0 mi SE 5.8 mph - N/A   Unknown
12:35 AM 70.0 °F - 65.8 °F 87% 29.80 in 10.0 mi SSE 5.8 mph - N/A   Unknown
12:55 AM 69.8 °F - 65.8 °F 87% 29.80 in 10.0 mi SE 5.8 mph - N/A   Unknown
1:15 AM 69.6 °F - 65.7 °F 87% 29.80 in 10.0 mi SSE 6.9 mph - N/A   Unknown
1:35 AM 69.8 °F - 65.8 °F 87% 29.80 in 10.0 mi SE 8.1 mph - N/A   Unknown
1:55 AM 69.8 °F - 66.2 °F 88% 29.79 in 10.0 mi SSE 8.1 mph - N/A   Unknown
2:15 AM 69.8 °F - 66.2 °F 88% 29.79 in 10.0 mi SSE 6.9 mph - N/A   Unknown
2:35 AM 70.2 °F - 66.2 °F 87% 29.78 in 10.0 mi SSE 8.1 mph - N/A   Unknown
2:55 AM 70.2 °F - 66.4 °F 88% 29.78 in 10.0 mi SSE 6.9 mph - N/A   Unknown
3:15 AM 70.0 °F - 66.2 °F 88% 29.78 in 10.0 mi SSE 8.1 mph - N/A   Unknown
3:35 AM 70.0 °F - 66.4 °F 88% 29.78 in 7.0 mi SSE 8.1 mph - N/A   Unknown
3:55 AM 70.0 °F - 66.6 °F 89% 29.78 in 7.0 mi SSE 4.6 mph - N/A   Unknown
4:15 AM 69.8 °F - 66.2 °F 88% 29.78 in 7.0 mi SSE 3.5 mph - N/A   Unknown
4:35 AM 69.3 °F - 66.2 °F 90% 29.79 in 7.0 mi SE 3.5 mph - N/A   Unknown
4:55 AM 69.4 °F - 66.4 °F 90% 29.79 in 7.0 mi SE 3.5 mph - N/A   Unknown
5:15 AM 69.6 °F - 66.4 °F 89% 29.80 in 7.0 mi Calm Calm - N/A   Unknown
5:35 AM 69.6 °F - 66.4 °F 89% 29.80 in 7.0 mi Calm Calm - N/A   Unknown
5:55 AM 69.6 °F - 66.4 °F 89% 29.81 in 7.0 mi Calm Calm - N/A   Unknown
6:15 AM 69.3 °F - 66.4 °F 91% 29.82 in 5.0 mi SE 3.5 mph - N/A   Mist
6:35 AM 69.1 °F - 66.2 °F 91% 29.83 in 5.0 mi Calm Calm - N/A   Mist
6:55 AM 68.9 °F - 66.2 °F 91% 29.83 in 5.0 mi Calm Calm - N/A   Mist
7:15 AM 69.3 °F - 66.6 °F 91% 29.84 in 5.0 mi ESE 3.5 mph - N/A   Mist
7:35 AM 69.8 °F - 66.7 °F 90% 29.85 in 4.0 mi ESE 3.5 mph - N/A   Mist
7:55 AM 70.9 °F - 67.5 °F 89% 29.86 in 4.0 mi ESE 3.5 mph - N/A   Mist
8:15 AM 72.1 °F - 67.8 °F 86% 29.86 in 5.0 mi Calm Calm - N/A   Mist
8:35 AM 73.2 °F - 68.5 °F 85% 29.87 in 5.0 mi SE 3.5 mph - N/A   Mist
8:55 AM 75.2 °F - 68.9 °F 81% 29.87 in 7.0 mi SE 5.8 mph - N/A   Unknown
9:15 AM 76.1 °F - 68.9 °F 78% 29.88 in 7.0 mi SSE 10.4 mph - N/A   Unknown
9:35 AM 76.8 °F - 68.9 °F 76% 29.88 in 10.0 mi South 12.7 mph 17.3 mph N/A   Unknown
9:55 AM 78.6 °F - 68.9 °F 72% 29.88 in 10.0 mi South 10.4 mph - N/A   Unknown
10:15 AM 78.1 °F - 68.0 °F 71% 29.88 in 10.0 mi South 13.8 mph 17.3 mph N/A   Unknown
10:35 AM 79.7 °F - 67.8 °F 67% 29.88 in 7.0 mi South 15.0 mph 19.6 mph N/A   Unknown
10:55 AM 81.3 °F 83.8 °F 67.3 °F 62% 29.87 in 10.0 mi South 12.7 mph 18.4 mph N/A   Unknown
11:15 AM 80.6 °F 82.9 °F 66.7 °F 63% 29.87 in 7.0 mi South 11.5 mph 18.4 mph N/A   Unknown
11:35 AM 82.9 °F 85.2 °F 66.4 °F 57% 29.86 in 7.0 mi South 16.1 mph 20.7 mph N/A   Unknown
11:55 AM 82.6 °F 84.7 °F 66.0 °F 57% 29.85 in 7.0 mi South 13.8 mph 19.6 mph N/A   Unknown
12:15 PM 83.5 °F 85.5 °F 65.7 °F 55% 29.84 in 7.0 mi SSE 11.5 mph - N/A   Unknown
12:35 PM 83.5 °F 85.1 °F 64.9 °F 53% 29.83 in 7.0 mi South 12.7 mph - N/A   Unknown
12:55 PM 82.8 °F 84.5 °F 65.3 °F 55% 29.82 in 7.0 mi South 9.2 mph - N/A   Unknown
1:15 PM 83.8 °F 85.6 °F 64.9 °F 53% 29.81 in 7.0 mi South 13.8 mph 18.4 mph N/A   Unknown
1:35 PM 84.0 °F 85.8 °F 64.9 °F 53% 29.80 in 7.0 mi South 12.7 mph - N/A   Unknown
1:55 PM 84.2 °F 85.8 °F 64.8 °F 52% 29.79 in 7.0 mi South 13.8 mph - N/A   Unknown
2:35 PM 85.5 °F 86.6 °F 63.7 °F 48% 29.78 in 7.0 mi SSE 16.1 mph 19.6 mph N/A   Unknown
2:55 PM 84.2 °F 85.2 °F 63.3 °F 49% 29.78 in 7.0 mi SSE 12.7 mph 18.4 mph N/A   Unknown
3:15 PM 84.7 °F 85.9 °F 63.9 °F 49% 29.78 in 7.0 mi South 11.5 mph - N/A   Unknown
3:35 PM 85.1 °F 86.9 °F 65.1 °F 51% 29.78 in 7.0 mi SSE 13.8 mph 21.9 mph N/A   Unknown
3:55 PM 82.9 °F 84.6 °F 64.8 °F 54% 29.78 in 7.0 mi SE 17.3 mph 21.9 mph N/A   Unknown
4:15 PM 82.4 °F 84.1 °F 64.9 °F 55% 29.78 in 7.0 mi SE 16.1 mph 20.7 mph N/A   Unknown
4:35 PM 81.3 °F 83.3 °F 65.7 °F 59% 29.78 in 7.0 mi SE 18.4 mph 24.2 mph N/A   Unknown
4:55 PM 79.7 °F - 65.7 °F 62% 29.78 in 7.0 mi SSE 13.8 mph 25.3 mph N/A   Unknown
5:15 PM 78.8 °F - 65.8 °F 64% 29.79 in 10.0 mi SSE 12.7 mph 19.6 mph N/A   Unknown
5:35 PM 77.9 °F - 66.0 °F 67% 29.80 in 10.0 mi SSE 11.5 mph 18.4 mph N/A   Unknown
5:55 PM 77.2 °F - 66.0 °F 68% 29.81 in 10.0 mi SSE 11.5 mph 18.4 mph N/A   Unknown
6:15 PM 76.6 °F - 65.8 °F 69% 29.82 in 10.0 mi SE 6.9 mph 18.4 mph N/A   Unknown
6:35 PM 76.1 °F - 66.2 °F 71% 29.83 in 10.0 mi SSE 11.5 mph - N/A   Unknown
6:55 PM 75.7 °F - 66.4 °F 73% 29.83 in 10.0 mi SSE 10.4 mph - N/A   Unknown
7:15 PM 75.6 °F - 66.6 °F 74% 29.84 in 10.0 mi SSE 9.2 mph - N/A   Unknown
7:55 PM 74.8 °F - 66.7 °F 76% 29.85 in 10.0 mi SSE 11.5 mph - N/A   Unknown
8:15 PM 74.5 °F - 66.7 °F 77% 29.85 in 10.0 mi SSE 10.4 mph - N/A   Unknown
8:35 PM 73.9 °F - 66.6 °F 78% 29.85 in 10.0 mi SSE 9.2 mph - N/A   Unknown
8:55 PM 73.6 °F - 66.7 °F 79% 29.86 in 10.0 mi SSE 9.2 mph - N/A   Unknown
9:15 PM 73.4 °F - 66.6 °F 79% 29.86 in 10.0 mi SSE 8.1 mph - N/A   Unknown
9:35 PM 72.7 °F - 66.6 °F 81% 29.86 in 10.0 mi SE 5.8 mph - N/A   Unknown
9:55 PM 72.5 °F - 66.6 °F 82% 29.86 in 10.0 mi SSE 6.9 mph - N/A   Unknown
10:15 PM 72.3 °F - 66.6 °F 82% 29.86 in 10.0 mi SSE 8.1 mph - N/A   Unknown
10:35 PM 72.0 °F - 66.6 °F 83% 29.87 in 10.0 mi SSE 6.9 mph - N/A   Unknown
10:55 PM 71.8 °F - 66.6 °F 84% 29.86 in 10.0 mi SSE 5.8 mph - N/A   Unknown
11:15 PM 71.8 °F - 66.6 °F 84% 29.86 in 10.0 mi SSE 5.8 mph - N/A   Unknown
11:35 PM 71.8 °F - 66.6 °F 84% 29.86 in 10.0 mi SSE 5.8 mph - N/A   Unknown
11:55 PM 71.6 °F - 66.6 °F 84% 29.85 in 10.0 mi SSE 5.8 mph - N/A   Unknown